Minot AFB, ND

3:34 PM CDT on October 15, 2019 (GMT -0500)
Minot Air Force Base

Weather History for KMIB - August, 2019

Change the Weather History Date:

Wednesday, August 14, 2019

  Actual Average Record
Temperature  
Mean Temperature 66 °F -  
Max Temperature 77 °F 79 °F 102 °F (2015)
Min Temperature 55 °F 53 °F 42 °F (2018)
Cooling Degree Days 1    
Growing Degree Days 16 (Base 50)    
Moisture  
Dew Point 54 °F    
Average Humidity 68    
Maximum Humidity 91    
Minimum Humidity 39    
Precipitation  
Precipitation 0.00 in - - ()
Sea Level Pressure  
Sea Level Pressure 30.08 in    
Wind  
Wind Speed 4 mph (WSW)    
Max Wind Speed 13 mph    
Max Gust Speed 21 mph    
Visibility 10 miles    
Events Rain    
Averages and records for this station are not official NWS values.
T = Trace of Precipitation, MM = Missing Value Source: NWS Daily Summary

Daily Weather History Graph

Daily Weather History Graph

Search for Another Location

Airport or City:

Astronomy

Aug. 14, 2019 Rise Set
Actual Time 6:37 AM CDT 9:01 PM CDT
Civil Twilight 6:02 AM CDT 9:36 PM CDT
Nautical Twilight 5:19 AM CDT 10:19 PM CDT
Astronomical Twilight 4:28 AM CDT 11:09 PM CDT
Moon 9:02 PM CDT (8/14) 5:28 AM CDT (8/14)
Length of Visible Light 15h 33m
Length of Day
14h 24m
Waxing Gibbous, 99% of the Moon is Illuminated
Aug 14
Waxing Gibbous
Aug 15
Full
Aug 23
Last Quarter
Aug 30
New
Sep 5
First Quarter

Hourly Weather History & Observations

Time (CDT) Temp. Dew Point Humidity Pressure Visibility Wind Dir Wind Speed Gust Speed Precip Events Conditions
12:56 AM 58.5 °F 55.6 °F 90% 30.17 in 10.0 mi WNW 3.5 mph - N/A   Overcast
1:56 AM 58.1 °F 55.2 °F 90% 30.17 in 10.0 mi Calm Calm - N/A   Overcast
2:56 AM 58.1 °F 54.5 °F 88% 30.17 in 10.0 mi Calm Calm - N/A   Overcast
3:56 AM 57.4 °F 54.7 °F 91% 30.17 in 10.0 mi Calm Calm - N/A   Overcast
4:56 AM 57.4 °F 54.1 °F 89% 30.16 in 10.0 mi Calm Calm - N/A   Overcast
5:56 AM 56.8 °F 53.6 °F 89% 30.16 in 10.0 mi Calm Calm - N/A   Overcast
6:56 AM 55.9 °F 52.7 °F 89% 30.16 in 10.0 mi Calm Calm - N/A   Mostly Cloudy
7:56 AM 57.9 °F 53.8 °F 86% 30.16 in 10.0 mi WSW 3.5 mph - N/A   Overcast
8:56 AM 61.9 °F 52.7 °F 72% 30.15 in 10.0 mi Calm Calm - N/A   Overcast
9:56 AM 66.6 °F 53.1 °F 62% 30.15 in 10.0 mi West 5.8 mph - N/A   Scattered Clouds
10:56 AM 69.4 °F 52.0 °F 54% 30.14 in 10.0 mi West 9.2 mph - N/A   Partly Cloudy
10:57 AM 69.1 °F 52.2 °F 55% 30.14 in 10.0 mi WSW 10.4 mph - N/A   Partly Cloudy
11:56 AM 70.9 °F 51.3 °F 50% 30.13 in 10.0 mi SW 5.8 mph - N/A   Partly Cloudy
12:56 PM 72.5 °F 50.5 °F 46% 30.11 in 10.0 mi West 9.2 mph - N/A   Clear
1:58 PM 77.0 °F 50.0 °F 39% - 10.0 mi West 9.2 mph - N/A   Partly Cloudy
3:56 PM 74.5 °F 51.8 °F 45% 30.05 in 10.0 mi WSW 12.7 mph 17.3 mph N/A   Partly Cloudy
4:56 PM 76.5 °F 50.9 °F 41% 30.02 in 10.0 mi WSW 12.7 mph 20.7 mph N/A   Partly Cloudy
5:56 PM 77.0 °F 50.7 °F 40% 30.00 in 10.0 mi WSW 12.7 mph 18.4 mph N/A   Partly Cloudy
6:56 PM 74.1 °F 50.7 °F 44% 29.99 in 10.0 mi SW 8.1 mph - N/A   Clear
7:56 PM 72.0 °F 52.9 °F 51% 29.98 in 10.0 mi SW 3.5 mph - N/A   Partly Cloudy
8:56 PM 69.4 °F 55.4 °F 61% 29.98 in 10.0 mi WNW 5.8 mph - N/A   Scattered Clouds
9:03 PM 69.8 °F 55.4 °F 60% 29.98 in 10.0 mi WNW 5.8 mph - N/A Rain Light Rain
9:46 PM 64.4 °F 59.0 °F 83% 29.98 in 10.0 mi Calm Calm - N/A   Mostly Cloudy
9:56 PM 64.4 °F 57.4 °F 78% 29.98 in 6.0 mi Calm Calm - 0.00 in   Haze
10:56 PM 60.8 °F 56.8 °F 87% 29.97 in 10.0 mi Calm Calm - N/A   Mostly Cloudy
11:56 PM 60.3 °F 56.1 °F 86% 29.96 in 10.0 mi Calm Calm - N/A   Clear